MicroStrategy Gross Margin 2010-2023 | MSTR

Current and historical gross margin for MicroStrategy (MSTR) over the last 10 years. The current gross profit margin for MicroStrategy as of December 31, 2023 is %.
MicroStrategy Gross Margin Historical Data
Date TTM Revenue TTM Gross Profit Gross Margin
2023-12-31 $0.50B $0.39B 77.98%
2023-09-30 $0.50B $0.40B 78.57%
2023-06-30 $0.50B $0.39B 78.60%
2023-03-31 $0.50B $0.40B 79.08%
2022-12-31 $0.50B $0.40B 79.56%
2022-09-30 $0.50B $0.40B 80.24%
2022-06-30 $0.50B $0.41B 80.95%
2022-03-31 $0.51B $0.41B 81.46%
2021-12-31 $0.51B $0.42B 82.00%
2021-09-30 $0.51B $0.42B 82.64%
2021-06-30 $0.51B $0.42B 82.81%
2021-03-31 $0.49B $0.40B 82.11%
2020-12-31 $0.48B $0.39B 81.46%
2020-09-30 $0.48B $0.39B 80.54%
2020-06-30 $0.48B $0.38B 79.62%
2020-03-31 $0.48B $0.38B 79.50%
2019-12-31 $0.49B $0.39B 79.26%
2019-09-30 $0.49B $0.38B 78.97%
2019-06-30 $0.49B $0.39B 79.26%
2019-03-31 $0.49B $0.39B 79.59%
2018-12-31 $0.50B $0.40B 80.12%
2018-09-30 $0.50B $0.41B 80.68%
2018-06-30 $0.51B $0.41B 80.63%
2018-03-31 $0.50B $0.41B 80.75%
2017-12-31 $0.50B $0.41B 81.11%
2017-09-30 $0.51B $0.41B 81.34%
2017-06-30 $0.51B $0.42B 81.68%
2017-03-31 $0.52B $0.42B 81.82%
2016-12-31 $0.51B $0.42B 81.71%
2016-09-30 $0.52B $0.42B 81.78%
2016-06-30 $0.52B $0.42B 81.40%
2016-03-31 $0.53B $0.43B 81.37%
2015-12-31 $0.53B $0.43B 80.79%
2015-09-30 $0.54B $0.43B 79.48%
2015-06-30 $0.56B $0.44B 78.46%
2015-03-31 $0.57B $0.44B 77.03%
2014-12-31 $0.58B $0.44B 76.55%
2014-09-30 $0.60B $0.46B 77.05%
2014-06-30 $0.59B $0.45B 77.04%
2014-03-31 $0.58B $0.45B 76.71%
2013-12-31 $0.58B $0.44B 75.87%
2013-09-30 $0.57B $0.42B 74.91%
2013-06-30 $0.56B $0.42B 74.29%
2013-03-31 $0.56B $0.42B 74.69%
2012-12-31 $0.57B $0.43B 75.22%
2012-09-30 $0.54B $0.41B 76.10%
2012-06-30 $0.55B $0.42B 76.00%
2012-03-31 $0.55B $0.42B 76.13%
2011-12-31 $0.54B $0.41B 75.79%
2011-09-30 $0.54B $0.40B 74.68%
2011-06-30 $0.51B $0.39B 75.10%
2011-03-31 $0.48B $0.37B 75.41%
2010-12-31 $0.46B $0.35B 76.48%
2010-09-30 $0.42B $0.33B 77.73%
2010-06-30 $0.41B $0.33B 79.81%
2010-03-31 $0.39B $0.32B 81.07%
2009-12-31 $0.38B $0.31B 82.28%
Sector Industry Market Cap Revenue
Computer and Technology Computer Software $28.104B $0.496B
MicroStrategy Incorporated, a leading worldwide provider of business intelligence software, today announced that GT Nexus has selected MicroStrategy to power the customer-facing analytics and reporting capabilities on its Global Logistics portal. The GT Nexus portal is an on demand technology platform that is used by importers, exporters, transportation carriers, suppliers, banks, and other partners to manage goods that are moving around the world. The GT Nexus system captures and stores hard-to-get data associated with global supply chains, and then fuels a range of Web applications that can be used by constituents to lower supply chain costs and improve control. MicroStrategy will help GT Nexus to deliver a wide range of analytics and reporting capabilities to its customers, which include Home Depot, Kmart, Xerox, Weyerhaeuser, and American Eagle Outfitters.
Stock Name Country Market Cap PE Ratio
Microsoft (MSFT) United States $3123.129B 36.38
Oracle (ORCL) United States $339.440B 27.63
Salesforce (CRM) United States $276.470B 46.22
Adobe (ADBE) United States $216.577B 36.21
Intuit (INTU) United States $185.130B 62.08
Synopsys (SNPS) United States $86.426B 62.35
Cadence Design Systems (CDNS) United States $78.595B 74.82
Dassault Systemes SA (DASTY) France $54.943B 35.70
Autodesk (ADSK) United States $47.665B 46.57
ANSYS (ANSS) United States $28.609B 52.94
PTC (PTC) United States $22.051B 58.48
SS&C Technologies Holdings (SSNC) United States $15.759B 14.92
Manhattan Associates (MANH) United States $14.086B 74.76
Descartes Systems Group (DSGX) Canada $8.355B 73.13
Open Text (OTEX) Canada $8.317B 8.37
Trend Micro (TMICY) Japan $6.733B 48.77
Pegasystems (PEGA) United States $5.347B 47.28
CommVault Systems (CVLT) United States $4.828B 78.89
Blackbaud (BLKB) United States $4.094B 35.24
ACI Worldwide (ACIW) United States $3.985B 18.94
Progress Software (PRGS) United States $2.222B 14.13
Verint Systems (VRNT) United States $2.002B 18.66
Sapiens (SPNS) Israel $1.922B 26.20
BlackBerry (BB) Canada $1.735B 0.00
PROS Holdings (PRO) United States $1.479B 0.00
Simulations Plus (SLP) United States $1.018B 74.93
Rand Worldwide (RWWI) United States $0.647B 0.00
Magic Software Enterprises (MGIC) Israel $0.583B 12.38
American Software (AMSWA) United States $0.347B 29.03
Canaan (CAN) China $0.245B 0.00
OptimizeRx (OPRX) United States $0.232B 0.00
Rigetti Computing (RGTI) United States $0.183B 0.00
Icad Inc (ICAD) United States $0.046B 0.00
Neonode (NEON) Sweden $0.034B 0.00
NetSol Technologies (NTWK) United States $0.030B 0.00
Wetouch Technology (WETH) $0.027B 0.00
Smith Micro Software (SMSI) United States $0.026B 0.00
Hanryu Holdings (HRYU) South Korea $0.022B 0.00
GSE Systems (GVP) United States $0.010B 0.00
SAP SE (SAP) Germany $0.000B 49.31